This demonstration page uses our WeatherBlox Daily Observations layout. Learn more.

Left ArrowRight Arrow

Hourly Observations for January 15, 2018

Temp ( °F °C ) Dew Point ( °F °C ) Humidity (%) Winds ( mph kmh ) Pressure ( in mb ) Visibility ( mi km ) Precip ( " mm )
12:53 am 00:53 Clear 30 -1.1 17 -8.3 58 58 E 3 6 30.24 1024 10 16 0.00 0.00
1:53 am 01:53 Clear 27 -2.8 16 -8.9 63 63 NE 3 6 30.21 1023 10 16 0.00 0.00
2:53 am 02:53 Clear 25 -3.9 16 -8.9 69 69 NNE 5 7 30.20 1023 10 16 0.00 0.00
3:53 am 03:53 Clear 24 -4.4 15 -9.4 68 68 N 6 9 30.19 1022 10 16 0.00 0.00
4:53 am 04:53 Clear 23 -5 15 -9.4 72 72 undefined N/A 30.16 1021 10 16 0.00 0.00
5:53 am 05:53 Clear 22 -5.6 15 -9.4 75 75 N 7 11 30.15 1021 10 16 0.00 0.00
6:53 am 06:53 Clear 23 -5 16 -8.9 74 74 N 7 11 30.17 1022 10 16 0.00 0.00
7:53 am 07:53 Sunny 22 -5.6 16 -8.9 78 78 N 6 9 30.17 1022 10 16 0.00 0.00
8:53 am 08:53 Sunny 31 -0.6 25 -3.9 79 79 N 3 6 30.16 1021 10 16 0.00 0.00
9:53 am 09:53 Sunny 42 5.6 32 0 68 68 ESE 5 7 30.16 1021 10 16 0.00 0.00
10:53 am 10:53 Sunny 49 9.4 28 -2.2 44 44 SSE 5 7 30.14 1021 10 16 0.00 0.00
11:53 am 11:53 Sunny 56 13.3 25 -3.9 30 30 S 6 9 30.14 1021 10 16 0.00 0.00
12:53 pm 12:53 Sunny 62 16.7 24 -4.4 23 23 Calm 30.12 1020 10 16 0.00 0.00
1:53 pm 13:53 Sunny 65 18.3 25 -3.9 22 22 N 14 22 30.11 1020 10 16 0.00 0.00
2:53 pm 14:53 Sunny 60 15.6 22 -5.6 23 23 NNE 29 46 30.14 1021 10 16 0.00 0.00
3:53 pm 15:53 Sunny 55 12.8 21 -6.1 26 26 NNE 26 43 30.19 1023 10 16 0.00 0.00
4:48 pm 16:48 Mostly Cloudy 54 12 21 -6 28 28 NNE 22 35 30.21 1023 7 11 0.00 0.00
4:53 pm 16:53 Mostly Cloudy 52 11.1 20 -6.7 28 28 NNE 22 35 30.24 1024 7 11 0.00 0.00
5:53 pm 17:53 Cloudy with Haze 42 5.6 27 -2.8 55 55 NE 30 48 30.33 1027 5 8 0.00 0.00
6:12 pm 18:12 Cloudy 39 3.9 27 -2.8 62 62 NNE 33 54 30.39 1029 9 14 0.00 0.00
6:53 pm 18:53 Mostly Cloudy 37 2.8 26 -3.3 65 65 NNE 24 39 30.41 1030 10 16 0.00 0.00
7:29 pm 19:29 Mostly Cloudy 36 2.2 26 -3.3 67 67 NNE 28 44 30.50 1033 10 16 0.00 0.00
7:53 pm 19:53 Cloudy 35 1.7 25 -3.9 67 67 NNE 24 39 30.48 1032 10 16 0.00 0.00
8:53 pm 20:53 Cloudy 34 1.1 23 -5 64 64 undefined N/A 30.52 1034 10 16 0.00 0.00
9:41 pm 21:41 Cloudy 34 1.1 20 -6.7 56 56 NNE 18 30 30.62 1037 10 16 0.00 0.00
9:53 pm 21:53 Cloudy 33 0.6 19 -7.2 56 56 NNE 15 24 30.55 1034 10 16 0.00 0.00
10:17 pm 22:17 Cloudy 33 0.6 17 -8.3 52 52 NE 16 26 30.65 1038 10 16 0.00 0.00
10:53 pm 22:53 Cloudy 32 0 16 -8.9 52 52 NNE 16 26 30.56 1035 10 16 0.00 0.00
11:53 pm 23:53 Cloudy 30 -1.1 6 -14.4 36 36 NE 18 30 30.58 1036 10 16 0.00 0.00

Powered by AerisWeather